カタログに戻る

STARLINK-4683

運用中通信VLEO
NORAD 53712·PAYLOAD·🇺🇸 United States

打ち上げ Sep 5, 2022 から Cape Canaveral Space Force Station

Loading…

次のパス (今後24時間)

TLE

最新Source: CelesTrak SupGP

元期: Sep 14, 2026, 20:58 UTC

1 53712C 22107N   26257.87409722 -.00039621  00000+0 -11708-2 0  2579
2 53712  53.1572 110.1303 0001253  84.0126 293.5598 15.34405733    11

AllMySatでSTARLINK-4683をリアルタイム追跡

Download on the App Store